| time (UTC) | temp F | wind direction | speed MPH | gust MPH | rain 1hr in | rain 24hr in | rain mn in | humidity % | barometer mb |
| 20260904163035 | 58 | 24 | 1.0 | 3.0 | 0.00 | 0.00 | 0.00 | 70 | 1012.5 |
| 20260904161533 | 58 | 13 | 2.0 | 3.0 | 0.00 | 0.00 | 0.00 | 72 | 1012.8 |
| 20260904160030 | 58 | 13 | 0.0 | 2.0 | 0.00 | 0.00 | 0.00 | 72 | 1013.2 |
| 20260904154529 | 58 | 13 | 0.0 | 3.0 | 0.00 | 0.00 | 0.00 | 72 | 1013.3 |
| 20260904153026 | 58 | 13 | 1.0 | 5.0 | 0.00 | 0.00 | 0.00 | 73 | 1013.6 |
| 20260904151526 | 57 | 19 | 0.0 | 2.0 | 0.00 | 0.00 | 0.00 | 76 | 1013.8 |
| 20260904150026 | 58 | 19 | 0.0 | 3.0 | 0.00 | 0.00 | 0.00 | 75 | 1013.9 |
| 20260904144521 | 58 | 19 | 0.0 | 2.0 | 0.00 | 0.00 | 0.00 | 75 | 1014.1 |
| 20260904143020 | 59 | 19 | 0.0 | 3.0 | 0.00 | 0.00 | 0.00 | 74 | 1014.2 |
| 20260904141517 | 58 | 15 | 1.0 | 4.0 | 0.00 | 0.00 | 0.00 | 75 | 1014.3 |
| 20260904140013 | 57 | 74 | 1.0 | 3.0 | 0.00 | 0.00 | 0.00 | 77 | 1014.1 |
| 20260904134520 | 57 | 159 | 0.0 | 1.0 | 0.00 | 0.00 | 0.00 | 77 | 1014.2 |
| 20260904133011 | 57 | 160 | 0.0 | 0.0 | 0.00 | 0.00 | 0.00 | 77 | 1014.3 |
| 20260904131511 | 58 | 160 | 0.0 | 0.0 | 0.00 | 0.00 | 0.00 | 75 | 1014.5 |
| 20260904130023 | 58 | 160 | 0.0 | 0.0 | 0.00 | 0.00 | 0.00 | 74 | 1014.6 |
| 20260904124510 | 59 | 160 | 0.0 | 0.0 | 0.00 | 0.00 | 0.00 | 73 | 1014.7 |
| 20260904123019 | 59 | 160 | 0.0 | 1.0 | 0.00 | 0.00 | 0.00 | 73 | 1015.0 |
| 20260904121508 | 60 | 160 | 0.0 | 0.0 | 0.00 | 0.00 | 0.00 | 71 | 1015.1 |
| 20260904120009 | 60 | 160 | 0.0 | 0.0 | 0.00 | 0.00 | 0.00 | 70 | 1015.2 |
| 20260904114508 | 61 | 160 | 0.0 | 1.0 | 0.00 | 0.00 | 0.00 | 68 | 1015.2 |
| 20260904113007 | 62 | 160 | 0.0 | 0.0 | 0.00 | 0.00 | 0.00 | 66 | 1015.3 |
| 20260904111507 | 63 | 160 | 0.0 | 0.0 | 0.00 | 0.00 | 0.00 | 65 | 1015.2 |
| 20260904110006 | 63 | 160 | 0.0 | 0.0 | 0.00 | 0.00 | 0.00 | 64 | 1015.2 |
| 20260904104516 | 63 | 160 | 0.0 | 0.0 | 0.00 | 0.00 | 0.00 | 63 | 1015.0 |
| 20260904103005 | 64 | 160 | 0.0 | 2.0 | 0.00 | 0.00 | 0.00 | 63 | 1014.8 |
| 20260904101505 | 63 | 168 | 2.0 | 5.0 | 0.00 | 0.00 | 0.00 | 63 | 1014.5 |
| 20260904100004 | 63 | 24 | 0.0 | 0.0 | 0.00 | 0.00 | 0.00 | 63 | 1014.2 |
| 20260904094503 | 64 | 24 | 0.0 | 3.0 | 0.00 | 0.00 | 0.00 | 61 | 1014.1 |
| 20260904093003 | 64 | 24 | 0.0 | 1.0 | 0.00 | 0.00 | 0.00 | 59 | 1013.8 |
| 20260904091502 | 65 | 24 | 0.0 | 2.0 | 0.00 | 0.00 | 0.00 | 58 | 1013.6 |
| 20260904090002 | 66 | 25 | 2.0 | 4.0 | 0.00 | 0.00 | 0.00 | 57 | 1013.5 |
| 20260904084502 | 67 | 34 | 0.0 | 3.0 | 0.00 | 0.00 | 0.00 | 55 | 1013.4 |
| 20260904083100 | 68 | 27 | 1.0 | 4.0 | 0.00 | 0.00 | 0.00 | 53 | 1013.2 |
| 20260904081602 | 69 | 37 | 1.0 | 6.0 | 0.00 | 0.00 | 0.00 | 49 | 1013.1 |
| 20260904080105 | 71 | 21 | 0.0 | 0.0 | 0.00 | 0.00 | 0.00 | 44 | 1012.9 |
| 20260904074600 | 73 | 21 | 0.0 | 0.0 | 0.00 | 0.00 | 0.00 | 41 | 1012.8 |
| 20260904073059 | 74 | 21 | 0.0 | 2.0 | 0.00 | 0.00 | 0.00 | 38 | 1012.5 |
| 20260904071558 | 76 | 22 | 0.0 | 2.0 | 0.00 | 0.00 | 0.00 | 37 | 1012.4 |
| 20260904070058 | 78 | 23 | 1.0 | 3.0 | 0.00 | 0.00 | 0.00 | 34 | 1012.2 |
| 20260904064557 | 78 | 78 | 0.0 | 3.0 | 0.00 | 0.00 | 0.00 | 34 | 1012.1 |
| 20260904063057 | 78 | 92 | 0.0 | 4.0 | 0.00 | 0.00 | 0.00 | 35 | 1012.2 |
| 20260904061555 | 78 | 305 | 1.0 | 3.0 | 0.00 | 0.00 | 0.00 | 34 | 1012.2 |
| 20260904060055 | 77 | 319 | 0.0 | 4.0 | 0.00 | 0.00 | 0.00 | 35 | 1012.1 |
| 20260904054553 | 77 | 30 | 2.0 | 7.0 | 0.00 | 0.00 | 0.00 | 35 | 1012.2 |
| 20260904053051 | 77 | 24 | 3.0 | 6.0 | 0.00 | 0.00 | 0.00 | 35 | 1012.5 |
| 20260904051549 | 77 | 34 | 1.0 | 6.0 | 0.00 | 0.00 | 0.00 | 34 | 1012.6 |
| 20260904050050 | 78 | 342 | 2.0 | 6.0 | 0.00 | 0.00 | 0.00 | 34 | 1012.6 |
| 20260904044554 | 77 | 309 | 1.0 | 5.0 | 0.00 | 0.00 | 0.00 | 36 | 1012.9 |
| 20260904043101 | 77 | 304 | 1.0 | 4.0 | 0.00 | 0.00 | 0.00 | 36 | 1013.0 |
| 20260904041541 | 76 | 333 | 1.0 | 6.0 | 0.00 | 0.00 | 0.00 | 36 | 1013.2 |
| 20260904040038 | 75 | 325 | 2.0 | 4.0 | 0.00 | 0.00 | 0.00 | 35 | 1013.5 |
| 20260904034537 | 75 | 295 | 3.0 | 7.0 | 0.00 | 0.00 | 0.00 | 37 | 1013.7 |
| 20260904033035 | 75 | 248 | 1.0 | 6.0 | 0.00 | 0.00 | 0.00 | 37 | 1014.0 |
| 20260904031531 | 74 | 202 | 1.0 | 8.0 | 0.00 | 0.00 | 0.00 | 38 | 1014.3 |
| 20260904030029 | 74 | 296 | 5.0 | 11.0 | 0.00 | 0.00 | 0.00 | 37 | 1014.5 |
| 20260904024527 | 74 | 179 | 5.0 | 11.0 | 0.00 | 0.00 | 0.00 | 38 | 1014.8 |
| 20260904023024 | 73 | 225 | 1.0 | 8.0 | 0.00 | 0.00 | 0.00 | 39 | 1015.0 |
| 20260904021525 | 73 | 355 | 4.0 | 8.0 | 0.00 | 0.00 | 0.00 | 38 | 1015.3 |
| 20260904020019 | 72 | 315 | 2.0 | 8.0 | 0.00 | 0.00 | 0.00 | 40 | 1015.6 |
| 20260904014516 | 71 | 190 | 2.0 | 5.0 | 0.00 | 0.00 | 0.00 | 40 | 1016.0 |
| 20260904013012 | 71 | 200 | 2.0 | 6.0 | 0.00 | 0.00 | 0.00 | 44 | 1016.4 |
| 20260904011509 | 69 | 229 | 1.0 | 7.0 | 0.00 | 0.00 | 0.00 | 45 | 1016.7 |
| 20260904010006 | 69 | 299 | 2.0 | 8.0 | 0.00 | 0.00 | 0.00 | 47 | 1017.0 |
| 20260904004503 | 68 | 281 | 1.0 | 4.0 | 0.00 | 0.00 | 0.00 | 48 | 1017.1 |
| 20260904003100 | 67 | 302 | 2.0 | 7.0 | 0.00 | 0.00 | 0.00 | 48 | 1017.3 |
| 20260904001558 | 67 | 26 | 1.0 | 5.0 | 0.00 | 0.00 | 0.00 | 51 | 1017.4 |
| 20260904000052 | 66 | 288 | 2.0 | 6.0 | 0.00 | 0.00 | 0.00 | 53 | 1017.6 |
| 20260903234548 | 65 | 285 | 2.0 | 7.0 | 0.00 | 0.00 | 0.00 | 54 | 1017.8 |
| 20260903233049 | 64 | 236 | 1.0 | 4.0 | 0.00 | 0.00 | 0.00 | 56 | 1018.0 |
| 20260903231541 | 63 | 255 | 1.0 | 7.0 | 0.00 | 0.00 | 0.00 | 57 | 1018.2 |
| 20260903230044 | 62 | 254 | 2.0 | 9.0 | 0.00 | 0.00 | 0.00 | 59 | 1018.3 |
| 20260903224533 | 61 | 323 | 1.0 | 4.0 | 0.00 | 0.00 | 0.00 | 62 | 1018.4 |
| 20260903223031 | 59 | 295 | 1.0 | 3.0 | 0.00 | 0.00 | 0.00 | 65 | 1018.3 |
| 20260903221527 | 58 | 274 | 2.0 | 4.0 | 0.00 | 0.00 | 0.00 | 66 | 1018.3 |
| 20260903220027 | 57 | 294 | 2.0 | 4.0 | 0.00 | 0.00 | 0.00 | 68 | 1018.3 |
| 20260903214529 | 56 | 317 | 1.0 | 3.0 | 0.00 | 0.00 | 0.00 | 69 | 1018.2 |
| 20260903213017 | 55 | 9 | 1.0 | 4.0 | 0.00 | 0.00 | 0.00 | 72 | 1018.1 |
| 20260903211512 | 54 | 347 | 1.0 | 4.0 | 0.00 | 0.00 | 0.00 | 75 | 1017.9 |
| 20260903210008 | 52 | 344 | 1.0 | 4.0 | 0.00 | 0.00 | 0.00 | 79 | 1017.6 |
| 20260903204505 | 51 | 20 | 2.0 | 3.0 | 0.00 | 0.00 | 0.00 | 80 | 1017.5 |
| 20260903203004 | 50 | 24 | 2.0 | 4.0 | 0.00 | 0.00 | 0.00 | 80 | 1017.4 |
| 20260903201500 | 51 | 294 | 0.0 | 3.0 | 0.00 | 0.00 | 0.00 | 79 | 1017.3 |
| 20260903200059 | 50 | 291 | 0.0 | 1.0 | 0.00 | 0.00 | 0.00 | 79 | 1017.1 |
| 20260903194557 | 51 | 291 | 0.0 | 2.0 | 0.00 | 0.00 | 0.00 | 78 | 1016.9 |
| 20260903193054 | 51 | 292 | 1.0 | 2.0 | 0.00 | 0.00 | 0.00 | 78 | 1016.8 |
| 20260903191557 | 51 | 293 | 0.0 | 3.0 | 0.00 | 0.00 | 0.00 | 78 | 1016.6 |
| 20260903190051 | 50 | 268 | 0.0 | 1.0 | 0.00 | 0.00 | 0.00 | 78 | 1016.5 |
| 20260903184556 | 50 | 210 | 0.0 | 0.0 | 0.00 | 0.00 | 0.00 | 78 | 1016.3 |
| 20260903183051 | 50 | 210 | 0.0 | 0.0 | 0.00 | 0.00 | 0.00 | 79 | 1016.1 |
| 20260903181548 | 50 | 210 | 0.0 | 2.0 | 0.00 | 0.00 | 0.00 | 78 | 1016.0 |
| 20260903180051 | 51 | 210 | 0.0 | 1.0 | 0.00 | 0.00 | 0.00 | 78 | 1015.8 |
| 20260903174545 | 51 | 210 | 0.0 | 2.0 | 0.00 | 0.00 | 0.00 | 77 | 1015.6 |
| 20260903173042 | 51 | 211 | 1.0 | 2.0 | 0.00 | 0.00 | 0.00 | 78 | 1015.6 |
| 20260903171541 | 51 | 206 | 0.0 | 0.0 | 0.00 | 0.00 | 0.00 | 77 | 1015.7 |
| 20260903170039 | 51 | 206 | 0.0 | 2.0 | 0.00 | 0.00 | 0.00 | 76 | 1015.7 |
| 20260903164537 | 52 | 206 | 0.0 | 1.0 | 0.00 | 0.00 | 0.00 | 76 | 1015.8 |